| time (UTC) | temp F | wind direction | speed MPH | gust MPH | rain 1hr in | rain 24hr in | rain mn in | humidity % | barometer mb |
| 20260508133055 | 48 | 278 | 6.0 | 10.0 | 0.00 | 0.88 | 0.00 | 99 | 1002.3 |
| 20260508131555 | 48 | 337 | 4.0 | 8.0 | 0.00 | 0.88 | 0.00 | 99 | 1002.3 |
| 20260508130057 | 47 | 325 | 4.0 | 8.0 | 0.00 | 0.88 | 0.00 | 99 | 1002.3 |
| 20260508124554 | 46 | 337 | 3.0 | 5.0 | 0.00 | 0.88 | 0.00 | 99 | 1002.4 |
| 20260508123055 | 46 | 332 | 3.0 | 8.0 | 0.00 | 0.88 | 0.00 | 99 | 1002.4 |
| 20260508121558 | 46 | 350 | 6.0 | 9.0 | 0.00 | 0.88 | 0.00 | 99 | 1002.4 |
| 20260508120055 | 45 | 337 | 4.0 | 6.0 | 0.00 | 0.88 | 0.00 | 99 | 1002.3 |
| 20260508114608 | 45 | 337 | 2.0 | 3.0 | 0.00 | 0.88 | 0.00 | 99 | 1002.4 |
| 20260508113105 | 45 | 337 | 2.0 | 4.0 | 0.00 | 0.88 | 0.00 | 99 | 1002.6 |
| 20260508111612 | 45 | 337 | 3.0 | 5.0 | 0.00 | 0.88 | 0.00 | 99 | 1002.4 |
| 20260508110205 | 44 | 327 | 3.0 | 5.0 | 0.00 | 0.88 | 0.00 | 99 | 1002.5 |
| 20260508104600 | 44 | 2 | 3.0 | 4.0 | 0.00 | 0.88 | 0.00 | 99 | 1002.3 |
| 20260508103055 | 44 | 15 | 1.0 | 3.0 | 0.00 | 0.88 | 0.00 | 99 | 1002.3 |
| 20260508101556 | 44 | 0 | 1.0 | 3.0 | 0.00 | 0.88 | 0.00 | 99 | 1002.5 |
| 20260508100101 | 44 | 0 | 0.0 | 2.0 | 0.00 | 0.88 | 0.00 | 99 | 1002.5 |
| 20260508094600 | 44 | 0 | 0.0 | 2.0 | 0.00 | 0.88 | 0.00 | 99 | 1002.3 |
| 20260508093104 | 44 | 0 | 0.0 | 0.0 | 0.00 | 0.88 | 0.00 | 99 | 1002.2 |
| 20260508091608 | 43 | 27 | 1.0 | 2.0 | 0.00 | 0.88 | 0.00 | 99 | 1002.2 |
| 20260508090105 | 44 | 27 | 0.0 | 4.0 | 0.00 | 0.88 | 0.00 | 99 | 1001.9 |
| 20260508084555 | 44 | 28 | 1.0 | 3.0 | 0.00 | 0.88 | 0.00 | 99 | 1001.9 |
| 20260508083107 | 44 | 350 | 1.0 | 4.0 | 0.00 | 0.88 | 0.00 | 98 | 1002.1 |
| 20260508081601 | 44 | 357 | 3.0 | 8.0 | 0.00 | 0.88 | 0.00 | 98 | 1002.1 |
| 20260508080105 | 45 | 337 | 3.0 | 8.0 | 0.00 | 0.88 | 0.00 | 98 | 1001.8 |
| 20260508074607 | 45 | 327 | 3.0 | 8.0 | 0.00 | 0.88 | 0.00 | 99 | 1001.6 |
| 20260508073103 | 45 | 321 | 5.0 | 9.0 | 0.00 | 0.88 | 0.00 | 98 | 1001.6 |
| 20260508071557 | 45 | 307 | 3.0 | 8.0 | 0.00 | 0.88 | 0.00 | 98 | 1001.7 |
| 20260508070100 | 45 | 323 | 5.0 | 10.0 | 0.00 | 0.88 | 0.00 | 98 | 1001.9 |
| 20260508064555 | 46 | 331 | 2.0 | 10.0 | 0.00 | 0.88 | 0.00 | 98 | 1001.8 |
| 20260508063102 | 45 | 309 | 4.0 | 9.0 | 0.00 | 0.88 | 0.00 | 98 | 1001.8 |
| 20260508061604 | 46 | 287 | 4.0 | 7.0 | 0.00 | 0.88 | 0.00 | 98 | 1001.7 |
| 20260508060056 | 46 | 292 | 3.0 | 7.0 | 0.00 | 0.88 | 0.00 | 98 | 1001.8 |
| 20260508054555 | 46 | 276 | 3.0 | 7.0 | 0.00 | 0.88 | 0.00 | 98 | 1001.9 |
| 20260508053104 | 47 | 305 | 3.0 | 8.0 | 0.00 | 0.88 | 0.00 | 98 | 1001.9 |
| 20260508051605 | 47 | 281 | 2.0 | 5.0 | 0.00 | 0.88 | 0.00 | 98 | 1002.0 |
| 20260508050057 | 47 | 0 | 0.0 | 0.0 | 0.00 | 0.88 | 0.00 | 98 | 1001.9 |
| 20260508044608 | 48 | 0 | 0.0 | 2.0 | 0.00 | 0.88 | 0.00 | 98 | 1001.5 |
| 20260508043055 | 48 | 281 | 0.0 | 2.0 | 0.00 | 0.88 | 0.00 | 98 | 1001.6 |
| 20260508041610 | 48 | 0 | 1.0 | 3.0 | 0.00 | 0.88 | 0.00 | 98 | 1001.8 |
| 20260508040056 | 48 | 281 | 2.0 | 4.0 | 0.00 | 0.88 | 0.00 | 98 | 1002.1 |
| 20260508034600 | 48 | 281 | 3.0 | 5.0 | 0.00 | 0.88 | 0.00 | 98 | 1002.2 |
| 20260508033104 | 47 | 283 | 3.0 | 5.0 | 0.00 | 0.88 | 0.00 | 98 | 1002.3 |
| 20260508031603 | 48 | 296 | 3.0 | 6.0 | 0.00 | 0.88 | 0.00 | 97 | 1002.4 |
| 20260508030105 | 49 | 305 | 3.0 | 5.0 | 0.00 | 0.88 | 0.00 | 97 | 1002.2 |
| 20260508024603 | 49 | 282 | 2.0 | 4.0 | 0.00 | 0.88 | 0.88 | 97 | 1002.3 |
| 20260508023100 | 49 | 282 | 2.0 | 4.0 | 0.00 | 0.88 | 0.88 | 97 | 1002.6 |
| 20260508020059 | 49 | 282 | 1.0 | 4.0 | 0.00 | 0.88 | 0.88 | 97 | 1002.4 |
| 20260508014559 | 49 | 0 | 0.0 | 5.0 | 0.00 | 0.88 | 0.88 | 97 | 1002.2 |
| 20260508013057 | 49 | 282 | 4.0 | 8.0 | 0.00 | 0.88 | 0.88 | 97 | 1002.5 |
| 20260508011609 | 50 | 277 | 3.0 | 5.0 | 0.00 | 0.88 | 0.88 | 96 | 1002.8 |
| 20260508010103 | 50 | 296 | 4.0 | 7.0 | 0.00 | 0.88 | 0.88 | 96 | 1002.4 |
| 20260508004600 | 51 | 317 | 4.0 | 9.0 | 0.00 | 0.88 | 0.88 | 95 | 1002.1 |
| 20260508003056 | 52 | 305 | 7.0 | 11.0 | 0.00 | 0.88 | 0.88 | 95 | 1002.1 |
| 20260508001601 | 54 | 0 | 0.0 | 0.0 | 0.00 | 0.88 | 0.88 | 95 | 1002.0 |
| 20260508000100 | 54 | 0 | 0.0 | 3.0 | 0.00 | 0.88 | 0.88 | 95 | 1001.9 |
| 20260507234559 | 54 | 196 | 0.0 | 2.0 | 0.00 | 0.88 | 0.88 | 95 | 1001.7 |
| 20260507233054 | 54 | 0 | 0.0 | 2.0 | 0.00 | 0.88 | 0.88 | 95 | 1001.7 |
| 20260507231559 | 54 | 0 | 0.0 | 0.0 | 0.00 | 0.88 | 0.88 | 94 | 1001.9 |
| 20260507230057 | 54 | 0 | 1.0 | 3.0 | 0.00 | 0.88 | 0.88 | 94 | 1001.9 |
| 20260507224601 | 54 | 0 | 0.0 | 5.0 | 0.00 | 0.88 | 0.88 | 94 | 1002.3 |
| 20260507223057 | 54 | 194 | 4.0 | 11.0 | 0.00 | 0.88 | 0.88 | 94 | 1002.0 |
| 20260507221556 | 54 | 209 | 3.0 | 8.0 | 0.00 | 0.88 | 0.88 | 94 | 1002.1 |
| 20260507220054 | 54 | 173 | 7.0 | 12.0 | 0.00 | 0.88 | 0.88 | 94 | 1001.9 |
| 20260507214555 | 54 | 154 | 5.0 | 10.0 | 0.00 | 0.88 | 0.88 | 95 | 1001.7 |
| 20260507213054 | 54 | 145 | 5.0 | 11.0 | 0.00 | 0.88 | 0.88 | 95 | 1001.4 |
| 20260507211554 | 55 | 133 | 6.0 | 12.0 | 0.00 | 0.88 | 0.88 | 95 | 1001.7 |
| 20260507210056 | 55 | 145 | 8.0 | 14.0 | 0.00 | 0.88 | 0.88 | 95 | 1001.8 |
| 20260507204555 | 55 | 175 | 6.0 | 12.0 | 0.02 | 0.88 | 0.88 | 96 | 1002.0 |
| 20260507203054 | 54 | 169 | 3.0 | 13.0 | 0.03 | 0.88 | 0.88 | 96 | 1001.8 |
| 20260507201606 | 54 | 169 | 7.0 | 14.0 | 0.03 | 0.88 | 0.88 | 96 | 1001.0 |
| 20260507200057 | 53 | 182 | 9.0 | 18.0 | 0.06 | 0.87 | 0.87 | 96 | 1000.9 |
| 20260507194554 | 53 | 114 | 10.0 | 15.0 | 0.11 | 0.85 | 0.85 | 96 | 1000.9 |
| 20260507193056 | 54 | 135 | 8.0 | 13.0 | 0.22 | 0.85 | 0.85 | 96 | 1002.3 |
| 20260507191558 | 53 | 121 | 6.0 | 10.0 | 0.28 | 0.84 | 0.84 | 96 | 1002.2 |
| 20260507190059 | 54 | 136 | 4.0 | 10.0 | 0.31 | 0.81 | 0.81 | 95 | 1002.8 |
| 20260507184559 | 54 | 165 | 7.0 | 15.0 | 0.35 | 0.74 | 0.74 | 95 | 1003.2 |
| 20260507183055 | 54 | 139 | 7.0 | 14.0 | 0.33 | 0.62 | 0.62 | 94 | 1003.9 |
| 20260507181556 | 55 | 178 | 8.0 | 16.0 | 0.41 | 0.55 | 0.55 | 94 | 1003.9 |
| 20260507180057 | 55 | 177 | 10.0 | 17.0 | 0.48 | 0.49 | 0.49 | 94 | 1004.0 |
| 20260507174605 | 55 | 181 | 8.0 | 19.0 | 0.38 | 0.39 | 0.39 | 94 | 1004.3 |
| 20260507173101 | 55 | 183 | 7.0 | 14.0 | 0.29 | 0.29 | 0.29 | 94 | 1005.0 |
| 20260507171604 | 55 | 193 | 10.0 | 24.0 | 0.14 | 0.14 | 0.14 | 93 | 1004.9 |
| 20260507170055 | 57 | 179 | 7.0 | 25.0 | 0.01 | 0.01 | 0.01 | 93 | 1004.2 |
| 20260507164556 | 58 | 154 | 11.0 | 29.0 | 0.00 | 0.00 | 0.00 | 93 | 1003.9 |
| 20260507163122 | 58 | 176 | 11.0 | 30.0 | 0.00 | 0.00 | 0.00 | 92 | 1004.0 |
| 20260507161557 | 58 | 138 | 9.0 | 24.0 | 0.00 | 0.00 | 0.00 | 91 | 1004.3 |
| 20260507160056 | 59 | 146 | 13.0 | 23.0 | 0.00 | 0.00 | 0.00 | 88 | 1004.7 |
| 20260507154557 | 59 | 173 | 15.0 | 34.0 | 0.00 | 0.00 | 0.00 | 87 | 1005.2 |
| 20260507153056 | 59 | 164 | 16.0 | 31.0 | 0.00 | 0.00 | 0.00 | 87 | 1005.5 |
| 20260507151555 | 58 | 152 | 14.0 | 26.0 | 0.00 | 0.00 | 0.00 | 88 | 1005.9 |
| 20260507150101 | 58 | 175 | 16.0 | 35.0 | 0.00 | 0.00 | 0.00 | 88 | 1006.5 |
| 20260507144617 | 59 | 157 | 12.0 | 29.0 | 0.00 | 0.00 | 0.00 | 88 | 1006.9 |
| 20260507143059 | 59 | 150 | 13.0 | 32.0 | 0.00 | 0.00 | 0.00 | 85 | 1007.1 |
| 20260507141626 | 59 | 185 | 12.0 | 32.0 | 0.00 | 0.00 | 0.00 | 86 | 1007.2 |
| 20260507134558 | 60 | 176 | 13.0 | 27.0 | 0.00 | 0.00 | 0.00 | 85 | 1007.5 |